Regional Weather Roundup
Issued by NWS Charleston, WV

Home | Current Version | Previous Version | Text Only | Print | Product List | Glossary On
Versions: 1 2 3 4 5 6 7 8 9 10 11 12 13 14 15 16 17 18 19 20 21 22 23 24 25 26 27 28 29 30 31 32 33 34 35 36 37 38 39 40 41 42 43 44 45 46 47 48 49 50
000
ASUS41 KRLX 120910
RWRRLX
West Virginia Regional Weather Roundup
National Weather Service Charleston WV
400 AM EST TUE DEC 12 2017

Note: "fair" indicates few or no clouds below 12,000 feet with no
significant weather and/or obstructions to visibility.

WVZ003-121000-
Northern Panhandle of West Virginia

CITY           SKY/WX    TMP DP  RH WIND       PRES   REMARKS
WHEELING       CLOUDY    39  25  57 W20G28    29.58S
$$

WVZ009-121000-
Northwest West Virginia

CITY           SKY/WX    TMP DP  RH WIND       PRES   REMARKS
PARKERSBURG    CLOUDY    42  26  53 W14G23    29.70S
$$

WVZ006-121000-
Western West Virginia

CITY           SKY/WX    TMP DP  RH WIND       PRES   REMARKS
HUNTINGTON     CLOUDY    44  27  51 W15G22    29.74S
$$

WVZ015-121000-
West Central West Virginia

CITY           SKY/WX    TMP DP  RH WIND       PRES   REMARKS
CHARLESTON     CLOUDY    46  26  45 W7G26     29.71S
$$

WVZ022-031-121000-
North Central West Virginia

CITY           SKY/WX    TMP DP  RH WIND       PRES   REMARKS
CLARKSBURG     CLOUDY    45  27  49 W14G24    29.64S
MORGANTOWN     CLOUDY    44  25  47 SW9       29.61S
$$

WVZ025-035-042-045-121000-
Southern West Virginia

CITY           SKY/WX    TMP DP  RH WIND       PRES   REMARKS
BECKLEY        CLOUDY    42  26  53 W15       29.66F
LOGAN          CLOUDY    45  27  49 W12G21    29.72S
BLUEFIELD      PTCLDY    40  27  59 W17G24    29.68F
LEWISBURG      PTCLDY    28  25  88 S3        29.66F
$$

WVZ047-121000-
Northern Mountains of West Virginia

CITY           SKY/WX    TMP DP  RH WIND       PRES   REMARKS
ELKINS         CLOUDY    45  27  49 SW9G24    29.60F
$$

WVZ052-121000-
Eastern Panhandle of West Virginia

CITY           SKY/WX    TMP DP  RH WIND       PRES   REMARKS
MARTINSBURG    MOCLDY    38  27  64 CALM      29.62F
PETERSBURG     CLOUDY    27  25  90 CALM      29.59F
$$



USA.gov is the U.S. government's official web portal to all federal, state and local government web resources and services.